When you browse on this site, cookies collect data to enhance your experience and personalize the content and advertising you see.
Visit our Privacy Policy to learn more. By continuing to use the site, you agree to this use of cookies and data.
  • In Hungary
  • List of Countries
  • For 7 days
  • Water Temperature
  • Weather Map
  • News
  • Weather Widgets
  • user-avatar
    Login

    Hourly Weather Auerbach

    Today, 14 December, Saturday

    Time Temperature Precipitation Wind Pressure Humidity
    00:00 -1°C° 0.1 mm 6 mps 696 mmHg 94%
    01:00 -1°C° 0.1 mm 6 mps 697 mmHg 94%
    02:00 -1°C° 0.1 mm 6 mps 697 mmHg 91%
    03:00 -1°C° 0.1 mm 6 mps 697 mmHg 89%
    04:00 -1°C° 0.1 mm 6 mps 698 mmHg 86%
    05:00 -1°C° 0 mm 6 mps 698 mmHg 87%
    06:00 -1°C° 0 mm 6 mps 698 mmHg 87%
    07:00 -1°C° 0 mm 5 mps 698 mmHg 87%
    08:00 -1°C° 0.4 mm 6 mps 698 mmHg 88%
    09:00 0°C° 0.4 mm 7 mps 697 mmHg 89%
    10:00 0°C° 0.4 mm 7 mps 697 mmHg 91%
    11:00 +1°C° 0.4 mm 8 mps 698 mmHg 86%
    12:00 +1°C° 0.4 mm 8 mps 699 mmHg 82%
    13:00 +2°C° 0.4 mm 9 mps 700 mmHg 77%
    14:00 +1°C° 0.1 mm 8 mps 702 mmHg 77%
    15:00 0°C° 0.1 mm 8 mps 703 mmHg 76%
    16:00 0°C° 0.1 mm 7 mps 705 mmHg 76%
    17:00 0°C° 0.1 mm 7 mps 705 mmHg 81%
    18:00 -1°C° 0.1 mm 7 mps 706 mmHg 87%
    19:00 -1°C° 0.1 mm 7 mps 706 mmHg 92%
    20:00 0°C° 0.1 mm 7 mps 706 mmHg 89%
    21:00 0°C° 0.1 mm 7 mps 707 mmHg 86%
    22:00 +2°C° 0.1 mm 7 mps 707 mmHg 82%
    23:00 +1°C° 0 mm 6 mps 708 mmHg 84%

    Tomorrow, 15 December, Sunday

    Time Temperature Precipitation Wind Pressure Humidity
    00:00 +1°C° 0 mm 5 mps 708 mmHg 86%
    01:00 +1°C° 0 mm 5 mps 708 mmHg 88%
    02:00 +1°C° 0 mm 5 mps 708 mmHg 88%
    03:00 +1°C° 0 mm 5 mps 708 mmHg 88%
    04:00 +1°C° 0 mm 4 mps 708 mmHg 89%
    05:00 +2°C° 0.4 mm 5 mps 708 mmHg 89%
    06:00 +3°C° 0.4 mm 5 mps 707 mmHg 90%
    07:00 +3°C° 0.4 mm 5 mps 706 mmHg 91%
    08:00 +4°C° 0.7 mm 6 mps 707 mmHg 89%
    09:00 +5°C° 0.7 mm 8 mps 707 mmHg 87%
    10:00 +6°C° 0.7 mm 9 mps 707 mmHg 85%
    11:00 +6°C° 0.5 mm 8 mps 708 mmHg 85%
    12:00 +6°C° 0.5 mm 8 mps 709 mmHg 86%
    13:00 +5°C° 0.5 mm 7 mps 710 mmHg 86%
    14:00 +5°C° 0.1 mm 6 mps 710 mmHg 82%
    15:00 +5°C° 0.1 mm 5 mps 711 mmHg 78%
    16:00 +4°C° 0.1 mm 4 mps 712 mmHg 75%
    17:00 +3°C° 0 mm 4 mps 712 mmHg 76%
    18:00 +3°C° 0 mm 4 mps 713 mmHg 77%
    19:00 +3°C° 0 mm 4 mps 714 mmHg 79%
    20:00 +2°C° 0 mm 3 mps 714 mmHg 80%
    21:00 +2°C° 0 mm 3 mps 714 mmHg 81%
    22:00 +2°C° 0 mm 3 mps 714 mmHg 82%
    23:00 +3°C° 0.1 mm 3 mps 714 mmHg 85%

    Day after tomorrow, 16 December, Monday

    Time Temperature Precipitation Wind Pressure Humidity
    00:00 +3°C° 0.1 mm 3 mps 714 mmHg 87%
    01:00 +4°C° 0.1 mm 3 mps 715 mmHg 89%
    02:00 +4°C° 0 mm 3 mps 715 mmHg 90%
    03:00 +4°C° 0 mm 3 mps 714 mmHg 92%
    04:00 +5°C° 0 mm 3 mps 714 mmHg 93%
    05:00 +5°C° 0.1 mm 3 mps 714 mmHg 92%
    06:00 +5°C° 0.1 mm 3 mps 714 mmHg 90%
    07:00 +5°C° 0.1 mm 3 mps 714 mmHg 89%
    08:00 +5°C° 0 mm 3 mps 714 mmHg 85%
    09:00 +5°C° 0 mm 3 mps 715 mmHg 82%
    10:00 +5°C° 0 mm 3 mps 715 mmHg 78%
    11:00 +7°C° 0 mm 3 mps 714 mmHg 76%
    12:00 +8°C° 0 mm 3 mps 714 mmHg 74%
    13:00 +8°C° 0 mm 3 mps 714 mmHg 72%
    14:00 +8°C° 0 mm 3 mps 714 mmHg 76%
    15:00 +7°C° 0 mm 3 mps 714 mmHg 79%
    16:00 +5°C° 0 mm 3 mps 713 mmHg 83%
    17:00 +4°C° 0 mm 3 mps 713 mmHg 84%
    18:00 +4°C° 0 mm 3 mps 713 mmHg 85%
    19:00 +3°C° 0 mm 3 mps 713 mmHg 86%
    20:00 +3°C° 0 mm 3 mps 713 mmHg 86%
    21:00 +3°C° 0 mm 3 mps 713 mmHg 86%
    22:00 +3°C° 0 mm 3 mps 713 mmHg 87%
    23:00 +3°C° 0 mm 3 mps 712 mmHg 87%

    17 December, Tuesday

    Time Temperature Precipitation Wind Pressure Humidity
    00:00 +3°C° 0 mm 3 mps 712 mmHg 87%
    01:00 +2°C° 0 mm 3 mps 712 mmHg 88%
    02:00 +2°C° 0 mm 3 mps 712 mmHg 87%
    03:00 +2°C° 0 mm 3 mps 712 mmHg 86%
    04:00 +2°C° 0 mm 3 mps 712 mmHg 86%
    05:00 +2°C° 0 mm 3 mps 712 mmHg 85%
    06:00 +2°C° 0 mm 3 mps 712 mmHg 85%
    07:00 +3°C° 0 mm 3 mps 712 mmHg 84%
    08:00 +3°C° 0 mm 3 mps 712 mmHg 83%
    09:00 +4°C° 0 mm 2 mps 712 mmHg 82%
    10:00 +5°C° 0 mm 2 mps 712 mmHg 81%
    11:00 +6°C° 0 mm 2 mps 712 mmHg 79%
    12:00 +7°C° 0 mm 2 mps 712 mmHg 76%
    13:00 +8°C° 0 mm 2 mps 712 mmHg 74%
    14:00 +7°C° 0 mm 2 mps 712 mmHg 76%
    15:00 +6°C° 0 mm 2 mps 712 mmHg 78%
    16:00 +6°C° 0 mm 2 mps 712 mmHg 81%
    17:00 +5°C° 0 mm 2 mps 712 mmHg 81%
    18:00 +5°C° 0 mm 2 mps 712 mmHg 81%
    19:00 +5°C° 0 mm 2 mps 712 mmHg 80%
    20:00 +5°C° 0 mm 2 mps 712 mmHg 80%
    21:00 +5°C° 0 mm 2 mps 713 mmHg 80%
    22:00 +5°C° 0 mm 2 mps 713 mmHg 79%
    23:00 +4°C° 0 mm 2 mps 713 mmHg 80%

    18 December, Wednesday

    Time Temperature Precipitation Wind Pressure Humidity
    00:00 +4°C° 0 mm 2 mps 713 mmHg 81%
    01:00 +4°C° 0 mm 2 mps 713 mmHg 82%
    02:00 +4°C° 0 mm 2 mps 713 mmHg 82%
    03:00 +4°C° 0 mm 2 mps 714 mmHg 83%
    04:00 +4°C° 0 mm 2 mps 714 mmHg 84%
    05:00 +4°C° 0 mm 2 mps 714 mmHg 85%
    06:00 +4°C° 0 mm 2 mps 715 mmHg 86%
    07:00 +4°C° 0 mm 2 mps 715 mmHg 87%
    08:00 +4°C° 0 mm 2 mps 716 mmHg 86%
    09:00 +4°C° 0 mm 2 mps 716 mmHg 86%
    10:00 +5°C° 0 mm 2 mps 717 mmHg 86%
    11:00 +7°C° 0 mm 1 mps 717 mmHg 84%
    12:00 +7°C° 0 mm 1 mps 717 mmHg 83%
    13:00 +7°C° 0 mm 0 mps 717 mmHg 82%
    14:00 +6°C° 0 mm 0 mps 717 mmHg 84%
    15:00 +6°C° 0 mm 0 mps 717 mmHg 87%
    16:00 +5°C° 0 mm 0 mps 717 mmHg 90%
    17:00 +5°C° 0 mm 0 mps 716 mmHg 90%
    18:00 +5°C° 0 mm 0 mps 716 mmHg 91%
    19:00 +5°C° 0 mm 0 mps 716 mmHg 92%
    20:00 +5°C° 0 mm 0 mps 716 mmHg 92%
    21:00 +5°C° 0 mm 0 mps 716 mmHg 92%
    22:00 +5°C° 0 mm 0 mps 716 mmHg 92%
    23:00 +4°C° 0 mm 0 mps 716 mmHg 92%

    19 December, Thursday

    Time Temperature Precipitation Wind Pressure Humidity
    00:00 +4°C° 0 mm 0 mps 716 mmHg 93%
    01:00 +4°C° 0 mm 0 mps 715 mmHg 93%
    02:00 +3°C° 0 mm 0 mps 715 mmHg 94%
    03:00 +3°C° 0 mm 0 mps 715 mmHg 94%
    04:00 +3°C° 0 mm 0 mps 715 mmHg 95%
    05:00 +3°C° 0 mm 0 mps 715 mmHg 94%
    06:00 +4°C° 0 mm 1 mps 715 mmHg 94%
    07:00 +3°C° 0 mm 1 mps 715 mmHg 94%
    08:00 +4°C° 0 mm 1 mps 715 mmHg 93%
    09:00 +4°C° 0 mm 1 mps 715 mmHg 91%
    10:00 +5°C° 0 mm 1 mps 715 mmHg 90%
    11:00 +6°C° 0 mm 1 mps 714 mmHg 88%
    12:00 +6°C° 0 mm 1 mps 714 mmHg 86%
    13:00 +7°C° 0 mm 1 mps 714 mmHg 84%
    14:00 +6°C° 0 mm 1 mps 713 mmHg 87%
    15:00 +6°C° 0 mm 1 mps 713 mmHg 90%
    16:00 +6°C° 0 mm 1 mps 713 mmHg 92%
    17:00 +6°C° 0 mm 1 mps 712 mmHg 93%
    18:00 +5°C° 0 mm 1 mps 712 mmHg 94%
    19:00 +5°C° 0 mm 1 mps 712 mmHg 94%
    20:00 +5°C° 0 mm 1 mps 711 mmHg 95%
    21:00 +5°C° 0 mm 1 mps 711 mmHg 95%
    22:00 +5°C° 0 mm 1 mps 711 mmHg 96%
    23:00 +5°C° 0 mm 1 mps 710 mmHg 96%
    Show more